TimeCST,TemperatureF,Dew PointF,Humidity,Sea Level PressureIn,VisibilityMPH,Wind Direction,Wind SpeedMPH,Gust SpeedMPH,PrecipitationIn,Events,Conditions,WindDirDegrees,DateUTC
12:53 AM,37.9,26.1,62,29.90,10.0,SE,9.2,-,N/A,,Clear,130,2013-03-04 06:53:00
1:53 AM,37.9,26.1,62,29.87,10.0,ESE,8.1,-,N/A,,Clear,110,2013-03-04 07:53:00
2:53 AM,37.0,26.1,65,29.84,10.0,ESE,9.2,-,N/A,,Clear,120,2013-03-04 08:53:00
3:53 AM,37.0,26.1,65,29.80,10.0,ESE,10.4,-,N/A,,Clear,120,2013-03-04 09:53:00
4:53 AM,37.9,27.0,65,29.80,10.0,ESE,8.1,-,N/A,,Clear,110,2013-03-04 10:53:00
6:53 AM,37.0,28.0,70,29.80,10.0,East,8.1,-,N/A,,Clear,100,2013-03-04 12:53:00
7:53 AM,39.0,28.9,67,29.78,10.0,SE,8.1,-,N/A,,Clear,130,2013-03-04 13:53:00
8:53 AM,42.1,30.9,65,29.79,10.0,ESE,5.8,-,N/A,,Clear,110,2013-03-04 14:53:00
9:53 AM,48.0,35.1,61,29.77,10.0,SSE,10.4,18.4,N/A,,Clear,150,2013-03-04 15:53:00
10:24 AM,51.8,37.4,58,29.76,10.0,SSE,8.1,-,N/A,,Mostly Cloudy,150,2013-03-04 16:24:00
10:53 AM,51.1,39.0,63,29.75,9.0,South,13.8,-,N/A,,Overcast,170,2013-03-04 16:53:00
11:53 AM,54.0,39.9,59,29.72,9.0,South,11.5,18.4,N/A,,Overcast,170,2013-03-04 17:53:00
12:53 PM,54.0,41.0,62,29.70,9.0,SSE,11.5,19.6,N/A,,Overcast,150,2013-03-04 18:53:00
1:53 PM,54.0,43.0,66,29.68,8.0,SSE,15.0,-,N/A,,Overcast,160,2013-03-04 19:53:00
2:46 PM,53.6,44.6,72,29.68,8.0,SSE,12.7,-,N/A,,Overcast,160,2013-03-04 20:46:00
2:53 PM,55.0,44.1,67,29.68,8.0,SSE,9.2,17.3,N/A,,Overcast,160,2013-03-04 20:53:00
3:04 PM,55.4,44.6,67,29.68,8.0,SSE,11.5,17.3,N/A,,Overcast,150,2013-03-04 21:04:00
3:13 PM,53.6,44.6,72,29.68,8.0,SSE,10.4,17.3,N/A,,Overcast,160,2013-03-04 21:13:00
3:53 PM,54.0,44.1,69,29.69,8.0,South,6.9,-,N/A,,Overcast,180,2013-03-04 21:53:00
4:12 PM,55.4,44.6,67,29.69,8.0,SSE,6.9,-,N/A,,Overcast,160,2013-03-04 22:12:00
4:53 PM,54.0,45.0,72,29.69,8.0,ESE,3.5,-,N/A,,Mostly Cloudy,120,2013-03-04 22:53:00
5:53 PM,53.1,44.1,71,29.71,9.0,SE,4.6,-,N/A,,Overcast,130,2013-03-04 23:53:00
6:53 PM,50.0,44.1,80,29.73,9.0,East,4.6,-,N/A,,Overcast,90,2013-03-05 00:53:00
7:53 PM,48.9,44.1,83,29.73,9.0,NE,3.5,-,N/A,,Mostly Cloudy,50,2013-03-05 01:53:00
8:53 PM,46.9,43.0,86,29.73,9.0,ENE,3.5,-,N/A,,Clear,70,2013-03-05 02:53:00
9:53 PM,46.9,43.0,86,29.74,9.0,ENE,4.6,-,N/A,,Clear,60,2013-03-05 03:53:00
10:53 PM,48.0,43.0,83,29.73,9.0,NE,3.5,-,N/A,,Overcast,50,2013-03-05 04:53:00
11:53 PM,46.0,43.0,89,29.75,8.0,Calm,Calm,-,N/A,,Overcast,0,2013-03-05 05:53:00